• In France
  • List of Countries
  • For 7 days
  • Water Temperature
  • Satellite Maps
  • Weather Map
  • Weather Widgets
  • user-avatar
    Login

    Hourly Weather Abovyan

    Today, 18 November, Saturday

    Time Temperature Precipitation Wind Pressure Humidity
    00:00 +8°C° 0 mm 1 mps 673 mmHg 47%
    01:00 +8°C° 0 mm 1 mps 673 mmHg 48%
    02:00 +8°C° 0 mm 1 mps 673 mmHg 49%
    03:00 +7°C° 0 mm 1 mps 673 mmHg 52%
    04:00 +7°C° 0 mm 1 mps 673 mmHg 52%
    05:00 +7°C° 0 mm 1 mps 673 mmHg 53%
    06:00 +7°C° 0 mm 1 mps 673 mmHg 54%
    07:00 +8°C° 0 mm 1 mps 674 mmHg 49%
    08:00 +10°C° 0 mm 1 mps 674 mmHg 45%
    09:00 +10°C° 0 mm 2 mps 674 mmHg 40%
    10:00 +12°C° 0 mm 2 mps 674 mmHg 37%
    11:00 +13°C° 0 mm 2 mps 674 mmHg 34%
    12:00 +13°C° 0 mm 3 mps 674 mmHg 32%
    13:00 +14°C° 0 mm 3 mps 674 mmHg 31%
    14:00 +14°C° 0 mm 3 mps 674 mmHg 31%
    15:00 +14°C° 0 mm 3 mps 673 mmHg 31%
    16:00 +12°C° 0 mm 3 mps 673 mmHg 34%
    17:00 +12°C° 0 mm 2 mps 673 mmHg 38%
    18:00 +9°C° 0 mm 2 mps 673 mmHg 42%
    19:00 +9°C° 0 mm 2 mps 673 mmHg 42%
    20:00 +9°C° 0 mm 2 mps 673 mmHg 42%
    21:00 +8°C° 0 mm 2 mps 673 mmHg 43%
    22:00 +8°C° 0 mm 2 mps 673 mmHg 44%
    23:00 +8°C° 0 mm 2 mps 673 mmHg 45%

    Tomorrow, 19 November, Sunday

    Time Temperature Precipitation Wind Pressure Humidity
    00:00 +8°C° 0 mm 2 mps 673 mmHg 45%
    01:00 +7°C° 0 mm 2 mps 672 mmHg 45%
    02:00 +7°C° 0 mm 2 mps 672 mmHg 46%
    03:00 +7°C° 0 mm 2 mps 672 mmHg 46%
    04:00 +7°C° 0 mm 2 mps 672 mmHg 45%
    05:00 +7°C° 0 mm 2 mps 672 mmHg 45%
    06:00 +7°C° 0 mm 2 mps 672 mmHg 44%
    07:00 +8°C° 0 mm 2 mps 672 mmHg 41%
    08:00 +10°C° 0 mm 2 mps 672 mmHg 38%
    09:00 +12°C° 0 mm 2 mps 673 mmHg 35%
    10:00 +12°C° 0.1 mm 2 mps 672 mmHg 35%
    11:00 +12°C° 0.1 mm 3 mps 672 mmHg 36%
    12:00 +12°C° 0.1 mm 3 mps 672 mmHg 37%
    13:00 +12°C° 0.2 mm 3 mps 672 mmHg 43%
    14:00 +11°C° 0.2 mm 3 mps 671 mmHg 49%
    15:00 +11°C° 0.2 mm 3 mps 671 mmHg 55%
    16:00 +10°C° 0.1 mm 3 mps 671 mmHg 58%
    17:00 +9°C° 0.1 mm 2 mps 671 mmHg 62%
    18:00 +8°C° 0.1 mm 2 mps 671 mmHg 65%
    19:00 +8°C° 0.1 mm 2 mps 671 mmHg 66%
    20:00 +8°C° 0.1 mm 2 mps 671 mmHg 66%
    21:00 +8°C° 0.1 mm 2 mps 671 mmHg 67%
    22:00 +8°C° 0 mm 2 mps 671 mmHg 67%
    23:00 +7°C° 0 mm 2 mps 671 mmHg 67%

    Day after tomorrow, 20 November, Monday

    Time Temperature Precipitation Wind Pressure Humidity
    00:00 +7°C° 0 mm 2 mps 671 mmHg 67%
    01:00 +7°C° 0 mm 2 mps 671 mmHg 67%
    02:00 +7°C° 0 mm 2 mps 671 mmHg 66%
    03:00 +6°C° 0 mm 2 mps 671 mmHg 66%
    04:00 +6°C° 0 mm 2 mps 670 mmHg 66%
    05:00 +6°C° 0 mm 2 mps 670 mmHg 67%
    06:00 +6°C° 0 mm 2 mps 670 mmHg 67%
    07:00 +7°C° 0 mm 2 mps 671 mmHg 63%
    08:00 +8°C° 0 mm 2 mps 671 mmHg 60%
    09:00 +9°C° 0 mm 2 mps 671 mmHg 56%
    10:00 +10°C° 0 mm 3 mps 671 mmHg 54%
    11:00 +11°C° 0 mm 3 mps 670 mmHg 52%
    12:00 +12°C° 0 mm 4 mps 670 mmHg 50%
    13:00 +12°C° 0.1 mm 3 mps 669 mmHg 51%
    14:00 +12°C° 0.1 mm 3 mps 669 mmHg 52%
    15:00 +12°C° 0.1 mm 3 mps 669 mmHg 52%
    16:00 +11°C° 0.1 mm 3 mps 668 mmHg 56%
    17:00 +10°C° 0.1 mm 3 mps 668 mmHg 60%
    18:00 +9°C° 0.1 mm 2 mps 668 mmHg 64%
    19:00 +9°C° 0.1 mm 2 mps 668 mmHg 65%
    20:00 +8°C° 0.1 mm 2 mps 668 mmHg 66%
    21:00 +8°C° 0.1 mm 2 mps 668 mmHg 67%
    22:00 +8°C° 0.1 mm 2 mps 667 mmHg 68%
    23:00 +8°C° 0.1 mm 2 mps 667 mmHg 68%

    21 November, Tuesday

    Time Temperature Precipitation Wind Pressure Humidity
    00:00 +8°C° 0.1 mm 2 mps 667 mmHg 69%
    01:00 +8°C° 0.1 mm 2 mps 667 mmHg 70%
    02:00 +8°C° 0.1 mm 2 mps 666 mmHg 70%
    03:00 +7°C° 0.1 mm 2 mps 666 mmHg 71%
    04:00 +7°C° 0 mm 2 mps 666 mmHg 71%
    05:00 +7°C° 0 mm 2 mps 665 mmHg 72%
    06:00 +7°C° 0 mm 2 mps 665 mmHg 72%
    07:00 +8°C° 0 mm 2 mps 665 mmHg 69%
    08:00 +9°C° 0 mm 2 mps 665 mmHg 65%
    09:00 +10°C° 0 mm 3 mps 665 mmHg 62%
    10:00 +11°C° 0 mm 3 mps 665 mmHg 60%
    11:00 +12°C° 0 mm 4 mps 665 mmHg 58%
    12:00 +13°C° 0 mm 4 mps 664 mmHg 56%
    13:00 +13°C° 0.1 mm 4 mps 664 mmHg 57%
    14:00 +12°C° 0.1 mm 4 mps 663 mmHg 58%
    15:00 +12°C° 0.1 mm 4 mps 663 mmHg 59%
    16:00 +11°C° 0.1 mm 4 mps 663 mmHg 64%
    17:00 +10°C° 0.1 mm 3 mps 663 mmHg 70%
    18:00 +10°C° 0.1 mm 3 mps 663 mmHg 75%
    19:00 +9°C° 0.1 mm 2 mps 663 mmHg 76%
    20:00 +9°C° 0.1 mm 2 mps 663 mmHg 77%
    21:00 +8°C° 0.1 mm 2 mps 663 mmHg 79%
    22:00 +8°C° 0.1 mm 2 mps 663 mmHg 78%
    23:00 +8°C° 0.1 mm 2 mps 663 mmHg 78%

    22 November, Wednesday

    Time Temperature Precipitation Wind Pressure Humidity
    00:00 +8°C° 0.1 mm 2 mps 662 mmHg 77%
    01:00 +8°C° 0.1 mm 2 mps 663 mmHg 77%
    02:00 +8°C° 0.1 mm 2 mps 663 mmHg 76%
    03:00 +8°C° 0.1 mm 2 mps 663 mmHg 75%
    04:00 +7°C° 0.6 mm 2 mps 663 mmHg 76%
    05:00 +7°C° 0.6 mm 2 mps 663 mmHg 77%
    06:00 +5°C° 0.6 mm 3 mps 664 mmHg 78%
    07:00 +5°C° 0.7 mm 3 mps 664 mmHg 78%
    08:00 +5°C° 0.7 mm 3 mps 664 mmHg 78%
    09:00 +5°C° 0.7 mm 3 mps 665 mmHg 77%
    10:00 +5°C° 0.3 mm 3 mps 665 mmHg 72%
    11:00 +7°C° 0.3 mm 3 mps 665 mmHg 67%
    12:00 +7°C° 0.3 mm 3 mps 665 mmHg 62%
    13:00 +7°C° 0 mm 3 mps 665 mmHg 60%
    14:00 +7°C° 0 mm 2 mps 665 mmHg 59%
    15:00 +7°C° 0 mm 2 mps 665 mmHg 57%
    16:00 +6°C° 0 mm 2 mps 665 mmHg 60%
    17:00 +5°C° 0 mm 2 mps 666 mmHg 62%
    18:00 +5°C° 0 mm 1 mps 666 mmHg 65%
    19:00 +5°C° 0.1 mm 1 mps 666 mmHg 66%
    20:00 +4°C° 0.1 mm 1 mps 667 mmHg 66%
    21:00 +3°C° 0.1 mm 2 mps 667 mmHg 67%
    22:00 +3°C° 0.1 mm 2 mps 667 mmHg 68%
    23:00 +3°C° 0.1 mm 2 mps 667 mmHg 68%

    23 November, Thursday

    Time Temperature Precipitation Wind Pressure Humidity
    00:00 +2°C° 0.1 mm 2 mps 667 mmHg 69%
    01:00 +3°C° 0.2 mm 1 mps 667 mmHg 70%
    02:00 +3°C° 0.2 mm 1 mps 667 mmHg 72%
    03:00 +3°C° 0.2 mm 1 mps 667 mmHg 73%
    04:00 +3°C° 0.4 mm 1 mps 667 mmHg 75%
    05:00 +3°C° 0.4 mm 1 mps 667 mmHg 77%
    06:00 +3°C° 0.4 mm 1 mps 667 mmHg 79%
    07:00 +3°C° 0.4 mm 1 mps 668 mmHg 79%
    08:00 +3°C° 0.4 mm 1 mps 668 mmHg 78%
    09:00 +3°C° 0.4 mm 1 mps 669 mmHg 78%
    10:00 +2°C° 0.4 mm 2 mps 669 mmHg 75%
    11:00 +3°C° 0.4 mm 2 mps 669 mmHg 72%
    12:00 +2°C° 0.4 mm 3 mps 669 mmHg 70%
    13:00 +2°C° 0.3 mm 3 mps 669 mmHg 69%
    14:00 +2°C° 0.3 mm 3 mps 669 mmHg 68%
    15:00 +2°C° 0.3 mm 3 mps 669 mmHg 67%
    16:00 +2°C° 0.2 mm 2 mps 670 mmHg 69%
    17:00 +2°C° 0.2 mm 2 mps 670 mmHg 71%
    18:00 +1°C° 0.2 mm 2 mps 671 mmHg 73%
    19:00 +1°C° 0.2 mm 2 mps 671 mmHg 73%
    20:00 +1°C° 0.2 mm 2 mps 671 mmHg 74%
    21:00 -1°C° 0.2 mm 2 mps 671 mmHg 74%
    22:00 -1°C° 0.1 mm 2 mps 671 mmHg 75%
    23:00 -1°C° 0.1 mm 2 mps 672 mmHg 76%
    Show more